Weather reports worldwide

Advertisment
Capri, Italy (16294): temperature & dewpoint: 24.10.2020 12:00:00 - 30.10.2020 12:00:00 (CET)Capri, Italy (16294): wind speed: 24.10.2020 12:00:00 - 30.10.2020 12:00:00 (CET)Capri, Italy (16294): wind direction: 24.10.2020 12:00:00 - 30.10.2020 12:00:00 (CET)Capri, Italy (16294): reduced air pressure: 24.10.2020 12:00:00 - 30.10.2020 12:00:00 (CET)Capri, Italy (16294): visibility: 24.10.2020 12:00:00 - 30.10.2020 12:00:00 (CET)
Date & Time tt [°C] td [°C] ff [km/h] ff [kn] dd ppp [hPa] vv [km]
30.10.2020 12:00:00 - - - - - - -
30.10.2020 11:00:00 19,0 15,0 0 0 N - 10
30.10.2020 10:00:00 18,0 14,1 0 0 N 1023,0 20
30.10.2020 09:00:00 17,0 13,0 5 3 NE - 10
30.10.2020 08:00:00 16,0 12,0 13 7 ENE - 10
30.10.2020 07:00:00 16,0 12,4 11 6 E 1022,3 15
30.10.2020 06:00:00 16,0 13,0 9 5 E - 10
30.10.2020 05:00:00 - - - - - - -
30.10.2020 04:00:00 16,6 13,0 8 4 ENE 1021,1 15
30.10.2020 03:00:00 16,0 12,0 9 5 E - 10
30.10.2020 02:00:00 16,0 13,0 9 5 E - 10
30.10.2020 01:00:00 16,8 13,1 11 6 E 1021,3 15
30.10.2020 00:00:00 17,0 13,0 11 6 E - 10
29.10.2020 23:00:00 18,0 14,0 9 5 NE - 10
29.10.2020 22:00:00 17,8 13,3 9 5 E 1021,1 15
29.10.2020 21:00:00 18,0 13,0 9 5 SSE - 10
29.10.2020 20:00:00 18,0 13,0 11 6 SW - 10
29.10.2020 19:00:00 18,0 13,3 15 8 SSW 1021,0 15
29.10.2020 18:00:00 18,0 14,0 13 7 SSW - 10
29.10.2020 17:00:00 18,0 14,0 13 7 W - 10
29.10.2020 16:00:00 18,4 13,9 11 6 WSW 1020,0 15
29.10.2020 15:00:00 - - - - - - -
29.10.2020 14:00:00 19,0 13,0 15 8 WSW - 10
29.10.2020 13:00:00 18,4 11,5 18 10 W 1020,2 18
29.10.2020 12:00:00 18,0 12,0 9 5 W - 10
29.10.2020 11:00:00 18,0 12,0 9 5 NNE - 10
29.10.2020 10:00:00 17,0 11,1 8 4 NNW 1020,2 20
29.10.2020 09:00:00 17,0 11,0 5 3 NNE - 10
29.10.2020 08:00:00 16,0 11,0 8 4 NNE - 10
29.10.2020 07:00:00 16,0 10,3 11 6 W 1018,5 20
29.10.2020 06:00:00 16,0 8,0 9 5 W - 10
29.10.2020 05:00:00 16,0 9,0 9 5 W - 10
29.10.2020 04:00:00 16,2 10,7 9 5 WSW 1018,1 20
29.10.2020 03:00:00 16,0 13,0 8 4 WSW - 10
29.10.2020 02:00:00 15,0 10,0 5 3 WSW - 10
29.10.2020 01:00:00 17,0 10,6 5 3 W 1018,0 20
29.10.2020 00:00:00 17,0 11,0 11 6 WSW - 10
28.10.2020 23:00:00 17,0 11,0 11 6 W - 10
28.10.2020 22:00:00 17,0 10,6 5 3 W 1018,0 20
28.10.2020 21:00:00 17,0 10,0 5 3 W - 10
28.10.2020 20:00:00 17,0 11,0 5 3 ENE - 10
28.10.2020 19:00:00 17,4 10,8 5 3 W 1017,0 20
28.10.2020 18:00:00 17,0 10,0 8 4 W - 10
28.10.2020 17:00:00 18,0 11,0 5 3 WSW - 10
28.10.2020 16:00:00 18,4 9,2 9 5 WSW 1015,9 20
28.10.2020 15:00:00 18,0 9,0 9 5 W - 10
28.10.2020 14:00:00 18,0 9,0 5 3 NNE - 10
28.10.2020 13:00:00 17,0 10,1 8 4 SW 1015,8 15
28.10.2020 12:00:00 17,0 10,0 9 5 SSW - 10
28.10.2020 11:00:00 17,0 10,0 8 4 E - 10
28.10.2020 10:00:00 16,0 9,2 5 3 SSW 1014,8 15
28.10.2020 09:00:00 15,0 10,0 9 5 SW - 10
28.10.2020 08:00:00 15,0 10,0 9 5 WSW - 10
28.10.2020 07:00:00 15,4 10,2 9 5 S 1013,0 20
28.10.2020 06:00:00 15,0 10,0 11 6 SSE - 10
28.10.2020 05:00:00 15,0 10,0 9 5 W - 10
28.10.2020 04:00:00 15,2 10,0 11 6 W 1012,8 10
28.10.2020 03:00:00 15,0 10,0 11 6 W - 10
28.10.2020 02:00:00 16,0 11,0 11 6 W - 10
28.10.2020 01:00:00 15,8 10,5 11 6 W 1013,1 10
28.10.2020 00:00:00 15,0 10,0 11 6 W - 10
27.10.2020 23:00:00 15,0 10,0 9 5 WSW - 10
27.10.2020 22:00:00 15,2 10,2 11 6 WSW 1013,0 10
27.10.2020 21:00:00 15,0 11,0 15 8 WSW - 10
27.10.2020 20:00:00 14,0 11,0 11 6 WNW - 10
27.10.2020 19:00:00 16,4 9,4 13 7 WSW 1012,7 10
27.10.2020 18:00:00 17,0 10,0 15 8 WSW - 10
27.10.2020 17:00:00 17,0 10,0 15 8 WSW - 10
27.10.2020 16:00:00 17,0 9,7 13 7 W 1012,1 15
27.10.2020 15:00:00 17,0 10,0 11 6 W - 10
27.10.2020 14:00:00 16,0 12,0 8 4 NNW - 10
27.10.2020 13:00:00 16,0 11,4 9 5 WSW 1012,4 10
27.10.2020 12:00:00 16,0 11,0 11 6 WSW - 10
27.10.2020 11:00:00 15,0 10,0 11 6 WSW - 10
27.10.2020 10:00:00 15,4 10,4 15 8 WSW 1012,3 10
27.10.2020 09:00:00 17,0 12,0 15 8 SW - 10
27.10.2020 08:00:00 17,0 13,0 11 6 W - 10
27.10.2020 07:00:00 16,6 13,1 11 6 WSW 1010,2 15
27.10.2020 06:00:00 17,0 14,0 21 11 SW - 10
27.10.2020 05:00:00 17,0 14,0 18 10 SW - 10
27.10.2020 04:00:00 16,2 13,3 16 9 SSW 1010,1 15
27.10.2020 03:00:00 18,0 14,0 15 8 S - 10
27.10.2020 02:00:00 18,0 14,0 13 7 S - 10
27.10.2020 01:00:00 18,0 13,7 15 8 SSE 1011,9 25
27.10.2020 00:00:00 18,0 14,0 8 4 SE - 10
26.10.2020 23:00:00 18,0 14,0 9 5 SE - 10
26.10.2020 22:00:00 18,0 13,1 13 7 ESE 1012,9 30
26.10.2020 21:00:00 18,0 13,0 13 7 ESE - 10
26.10.2020 20:00:00 18,0 13,0 11 6 ESE - 10
26.10.2020 19:00:00 18,4 13,5 8 4 S 1013,0 30
26.10.2020 18:00:00 18,0 14,0 11 6 S - 10
26.10.2020 17:00:00 19,0 13,0 9 5 SSW - 10
26.10.2020 16:00:00 20,4 13,8 9 5 SW 1014,6 35
26.10.2020 15:00:00 20,0 14,0 11 6 S - 10
26.10.2020 14:00:00 20,0 14,0 8 4 SSW - 10
26.10.2020 13:00:00 19,0 13,2 8 4 S 1015,6 35
26.10.2020 12:00:00 19,0 13,0 11 6 S - 10
26.10.2020 11:00:00 19,0 13,0 11 6 S - 10
26.10.2020 10:00:00 18,2 13,1 8 4 WSW 1016,0 35
26.10.2020 09:00:00 17,0 11,0 2 1 S - 10
26.10.2020 08:00:00 17,0 13,0 5 3 SSW - 10
26.10.2020 07:00:00 17,0 13,0 4 2 SSW 1015,9 50
26.10.2020 06:00:00 17,0 13,0 4 2 SW - 10
26.10.2020 05:00:00 17,0 13,0 5 3 SSW - 10
26.10.2020 04:00:00 16,6 13,0 5 3 SW 1016,4 20
26.10.2020 03:00:00 - - - - - - -
26.10.2020 02:00:00 15,0 12,0 0 0 N - 10
26.10.2020 01:00:00 15,6 12,0 0 0 N 1017,3 20
26.10.2020 00:00:00 16,0 12,0 0 0 N - 10
25.10.2020 23:00:00 16,0 12,0 0 0 N - 10
25.10.2020 22:00:00 16,6 12,4 5 3 SSW 1017,0 20
25.10.2020 21:00:00 17,0 12,0 5 3 SSW - 10
25.10.2020 20:00:00 18,0 12,0 5 3 SW - 10
25.10.2020 19:00:00 17,8 12,3 5 3 WSW 1016,9 20
25.10.2020 18:00:00 18,0 12,0 8 4 SW - 10
25.10.2020 17:00:00 18,0 12,0 11 6 WSW - 10
25.10.2020 16:00:00 19,0 12,5 5 3 WSW 1016,5 50
25.10.2020 15:00:00 19,0 13,0 11 6 SW - 10
25.10.2020 14:00:00 19,0 13,0 15 8 SW - 10
25.10.2020 13:00:00 19,2 13,6 9 5 WSW 1016,9 50
25.10.2020 12:00:00 19,0 14,0 5 3 WSW - 10
25.10.2020 11:00:00 19,0 14,0 5 3 WSW - 10
25.10.2020 10:00:00 18,2 13,3 5 3 WSW 1017,1 30
25.10.2020 09:00:00 18,0 13,0 13 7 SW - 10
25.10.2020 08:00:00 17,0 13,0 13 7 SW - 10
25.10.2020 07:00:00 17,4 12,5 15 8 SW 1016,5 25
25.10.2020 06:00:00 17,0 13,0 15 8 WSW - 10
25.10.2020 05:00:00 18,0 13,0 16 9 SW - 10
25.10.2020 04:00:00 17,8 12,9 18 10 SW 1016,5 20
25.10.2020 03:00:00 18,0 13,0 21 11 SW - 10
25.10.2020 02:00:00 18,0 12,0 16 9 SW - 10
25.10.2020 01:00:00 - - - - - - -
25.10.2020 00:00:00 17,0 11,0 15 8 SW - 10
24.10.2020 23:00:00 18,0 12,0 15 8 SW - 10
24.10.2020 22:00:00 18,0 11,8 16 9 SW 1017,8 20
24.10.2020 21:00:00 18,0 12,0 18 10 SW - 10
24.10.2020 20:00:00 18,0 14,0 18 10 SW - 10
24.10.2020 19:00:00 18,0 14,1 18 10 WSW 1018,0 20
24.10.2020 18:00:00 18,0 14,0 15 8 SW - 10
24.10.2020 17:00:00 18,0 14,0 13 7 SSW - 10
24.10.2020 16:00:00 18,0 13,9 11 6 SW 1018,0 20
24.10.2020 15:00:00 17,0 13,0 9 5 NE - 10
24.10.2020 14:00:00 17,0 13,0 9 5 NNE - 10
24.10.2020 13:00:00 17,0 13,0 9 5 NE - 10
24.10.2020 12:00:00 - - - - - - -

tt = temperature
td = dewpoint
ff = wind speed
dd = wind direction
ppp = reduced air pressure
vv = visibility

Next stations